EW9255 Weather Reports


Display with metric or nautical units.
time (UTC)temp
F
wind
direction
speed
MPH
gust
MPH
rain 1hr
in
rain 24hr
in
rain mn
in
humidity
%
barometer
mb
20190223062205 26 120 0.0 3.0 0.00 0.02 0.00 80 1036.2
20190223061705 27 120 0.0 3.0 0.00 0.02 0.00 79 1036.1
20190223061205 27 120 0.0 3.0 0.00 0.02 0.00 80 1036.1
20190223060705 27 120 0.0 3.0 0.00 0.02 0.00 80 1036.2
20190223060205 27 104 0.0 3.0 0.00 0.02 0.00 80 1036.1
20190223055706 27 92 0.0 3.0 0.00 0.02 0.00 81 1036.2
20190223055205 27 114 0.0 3.0 0.00 0.02 0.00 81 1036.1
20190223054705 27 122 0.0 3.0 0.00 0.02 0.00 81 1036.1
20190223054205 27 126 0.0 3.0 0.00 0.02 0.00 82 1036.0
20190223053705 27 137 0.0 2.0 0.00 0.02 0.00 82 1036.1
20190223053205 27 134 0.0 3.0 0.00 0.02 0.00 82 1036.0
20190223052705 27 125 0.0 3.0 0.00 0.03 0.00 83 1036.0
20190223052205 27 133 0.0 3.0 0.00 0.03 0.00 83 1036.0
20190223051705 27 136 0.0 4.0 0.00 0.03 0.00 84 1035.9
20190223051205 27 120 0.0 5.0 0.00 0.03 0.00 84 1035.9
20190223050705 27 121 1.0 5.0 0.00 0.04 0.00 85 1036.0
20190223050205 27 121 0.0 2.0 0.00 0.04 0.00 85 1035.9
20190223045705 27 125 0.0 0.0 0.00 0.05 0.00 85 1035.9
20190223045205 27 116 0.0 1.0 0.00 0.05 0.00 85 1036.0
20190223044705 27 116 0.0 3.0 0.00 0.05 0.00 85 1035.9
20190223044205 27 116 0.0 3.0 0.00 0.05 0.00 85 1035.9
20190223043705 27 116 0.0 3.0 0.00 0.05 0.00 85 1035.9
20190223043206 28 112 0.0 1.0 0.00 0.05 0.00 85 1036.0
20190223042705 28 103 0.0 1.0 0.00 0.05 0.00 85 1036.0
20190223042205 28 103 0.0 1.0 0.00 0.05 0.00 85 1036.1
20190223041705 28 103 0.0 1.0 0.00 0.05 0.00 85 1036.2
20190223041204 28 103 0.0 1.0 0.00 0.05 0.00 85 1036.2
20190223040705 28 103 0.0 1.0 0.00 0.05 0.00 85 1036.2
20190223040205 28 103 0.0 1.0 0.00 0.05 0.00 85 1036.1
20190223035706 28 103 0.0 2.0 0.00 0.05 0.00 86 1035.9
20190223035205 28 103 0.0 2.0 0.00 0.05 0.00 86 1036.0
20190223034705 28 103 0.0 2.0 0.00 0.05 0.00 86 1035.9
20190223034205 28 105 0.0 0.0 0.00 0.05 0.00 86 1035.8
20190223033704 29 105 0.0 1.0 0.00 0.05 0.00 86 1035.9
20190223033205 29 105 0.0 1.0 0.00 0.05 0.00 85 1035.8
20190223032705 29 105 0.0 2.0 0.00 0.05 0.00 85 1036.0
20190223032235 29 105 0.0 2.0 0.00 0.05 0.00 85 1035.9
20190223031705 29 108 0.0 2.0 0.00 0.05 0.00 85 1035.8
20190223031205 29 108 0.0 1.0 0.00 0.05 0.00 85 1035.9
20190223030705 29 113 0.0 2.0 0.00 0.05 0.00 85 1036.0
20190223030205 29 113 0.0 4.0 0.00 0.05 0.00 85 1036.0
20190223025705 29 108 0.0 4.0 0.00 0.05 0.00 85 1036.0
20190223025205 30 93 0.0 4.0 0.00 0.05 0.00 85 1036.0
20190223024705 30 120 0.0 2.0 0.00 0.05 0.00 84 1036.1
20190223024205 30 134 0.0 4.0 0.00 0.05 0.00 84 1036.3
20190223023705 30 139 0.0 4.0 0.00 0.05 0.00 85 1036.2
20190223023205 30 138 0.0 4.0 0.00 0.05 0.00 85 1036.2
20190223022705 30 126 0.0 4.0 0.00 0.05 0.00 85 1036.2
20190223022205 30 93 0.0 4.0 0.00 0.05 0.00 86 1036.1
20190223021704 30 94 1.0 4.0 0.00 0.05 0.00 86 1036.2
20190223021205 30 98 1.0 4.0 0.00 0.05 0.00 87 1036.3
20190223020705 30 121 0.0 4.0 0.00 0.05 0.00 87 1036.2
20190223020205 30 122 0.0 3.0 0.00 0.05 0.00 87 1036.1
20190223015705 30 84 0.0 3.0 0.00 0.05 0.00 86 1035.8
20190223015205 31 91 0.0 3.0 0.00 0.05 0.00 87 1035.8
20190223014705 31 112 0.0 2.0 0.00 0.05 0.00 86 1035.7
20190223014205 31 118 0.0 3.0 0.00 0.05 0.00 86 1035.7
20190223013705 31 118 0.0 3.0 0.00 0.05 0.00 87 1035.6
20190223013205 31 118 0.0 3.0 0.00 0.05 0.00 87 1035.7
20190223012705 31 118 0.0 4.0 0.00 0.05 0.00 87 1035.7
20190223012205 31 116 0.0 4.0 0.00 0.05 0.00 87 1035.7
20190223011705 31 116 0.0 4.0 0.00 0.05 0.00 87 1035.7
20190223011205 31 86 1.0 3.0 0.00 0.05 0.00 88 1035.6
20190223010705 31 94 0.0 3.0 0.00 0.05 0.00 88 1035.5
20190223010205 31 95 0.0 3.0 0.00 0.05 0.00 89 1035.6
20190223005705 31 106 0.0 1.0 0.00 0.05 0.00 89 1035.5
20190223005205 31 106 0.0 1.0 0.00 0.05 0.00 89 1035.5
20190223004705 31 107 0.0 1.0 0.00 0.05 0.00 88 1035.5
20190223004205 31 107 0.0 3.0 0.00 0.05 0.00 88 1035.4
20190223003705 31 107 0.0 3.0 0.00 0.05 0.00 88 1035.4
20190223003205 31 107 0.0 3.0 0.00 0.05 0.00 88 1035.3
20190223002705 31 107 0.0 0.0 0.00 0.05 0.00 88 1035.3
20190223002205 31 100 0.0 1.0 0.00 0.05 0.00 88 1035.4
20190223001705 31 100 0.0 1.0 0.00 0.06 0.00 87 1035.2
20190223001205 32 100 0.0 1.0 0.00 0.06 0.00 87 1035.3
20190223000705 32 100 0.0 0.0 0.00 0.06 0.00 87 1035.3
20190223000205 32 100 0.0 0.0 0.00 0.06 0.00 87 1035.2
20190222235705 32 100 0.0 0.0 0.00 0.07 0.00 87 1035.3
20190222235205 32 100 0.0 0.0 0.00 0.07 0.00 87 1035.3
20190222234705 32 100 0.0 0.0 0.00 0.07 0.00 87 1035.5
20190222234205 32 100 0.0 0.0 0.00 0.07 0.00 87 1035.4
20190222233705 32 100 0.0 0.0 0.00 0.07 0.00 87 1035.4
20190222233205 33 100 0.0 0.0 0.00 0.07 0.00 87 1035.3
20190222232705 33 100 0.0 1.0 0.00 0.07 0.00 87 1035.4
20190222232205 33 100 0.0 1.0 0.00 0.07 0.00 87 1035.3
20190222231705 33 100 0.0 1.0 0.00 0.07 0.00 86 1035.4
20190222231205 33 100 0.0 1.0 0.00 0.07 0.00 86 1035.4
20190222230705 33 100 0.0 1.0 0.00 0.07 0.00 86 1035.4
20190222230205 33 100 0.0 0.0 0.00 0.07 0.07 86 1035.3
20190222225705 34 100 0.0 1.0 0.00 0.07 0.07 85 1035.2
20190222225205 34 100 0.0 1.0 0.00 0.07 0.07 85 1035.4
20190222224706 34 100 0.0 1.0 0.00 0.07 0.07 85 1035.4
20190222224205 34 100 0.0 1.0 0.00 0.07 0.07 85 1035.4
20190222223705 34 100 0.0 0.0 0.00 0.07 0.07 85 1035.4
20190222223205 35 100 0.0 0.0 0.00 0.07 0.07 85 1035.4
20190222222705 35 100 0.0 0.0 0.00 0.07 0.07 85 1035.3
20190222222206 35 100 0.0 0.0 0.00 0.07 0.07 85 1035.3
20190222221705 35 100 0.0 0.0 0.00 0.07 0.07 85 1035.3
20190222221205 35 100 0.0 0.0 0.00 0.07 0.07 85 1035.3
20190222220705 35 100 0.0 0.0 0.00 0.07 0.07 85 1035.1
20190222220205 35 100 0.0 1.0 0.00 0.07 0.07 85 1035.1
20190222215705 35 100 0.0 2.0 0.00 0.07 0.07 85 1034.9
20190222215205 35 100 0.0 2.0 0.00 0.07 0.07 85 1035.0
20190222214705 36 100 0.0 5.0 0.00 0.07 0.07 86 1034.9
20190222214205 36 100 0.0 5.0 0.00 0.07 0.07 86 1034.9
20190222213705 36 101 0.0 5.0 0.00 0.07 0.07 87 1034.8
20190222213205 36 95 0.0 3.0 0.00 0.07 0.07 88 1034.9
20190222212705 36 99 0.0 3.0 0.00 0.07 0.07 88 1034.7
20190222212205 36 99 0.0 3.0 0.00 0.07 0.07 89 1034.9
20190222211705 36 99 0.0 2.0 0.00 0.07 0.07 89 1034.8
20190222211205 36 105 0.0 2.0 0.00 0.07 0.07 89 1034.8
20190222210705 36 63 0.0 0.0 0.00 0.07 0.07 90 1034.7
20190222210205 36 359 0.0 0.0 0.00 0.07 0.07 90 1034.7
20190222205705 37 359 0.0 0.0 0.00 0.07 0.07 90 1034.7
20190222205205 37 359 0.0 0.0 0.00 0.07 0.07 90 1034.6
20190222204705 37 359 0.0 0.0 0.00 0.07 0.07 90 1034.6
20190222204205 37 359 0.0 0.0 0.00 0.07 0.07 90 1034.5
20190222203705 37 359 0.0 0.0 0.00 0.07 0.07 90 1034.5
20190222203205 37 359 0.0 0.0 0.00 0.07 0.07 91 1034.5
20190222202705 37 357 0.0 0.0 0.00 0.07 0.07 91 1034.3
20190222202205 37 348 0.0 0.0 0.00 0.07 0.07 91 1034.3
20190222201705 37 348 0.0 0.0 0.00 0.07 0.07 90 1034.3
20190222201205 37 348 0.0 0.0 0.00 0.07 0.07 91 1034.3
20190222200705 38 348 0.0 0.0 0.00 0.07 0.07 91 1034.3
20190222200205 38 348 0.0 0.0 0.00 0.07 0.07 91 1034.5
20190222195705 38 348 0.0 0.0 0.00 0.07 0.07 91 1034.2
20190222195205 38 348 0.0 2.0 0.00 0.07 0.07 91 1034.1
20190222194705 38 348 0.0 2.0 0.00 0.07 0.07 92 1033.9
20190222194205 38 348 0.0 2.0 0.00 0.07 0.07 92 1034.0
20190222193705 38 55 0.0 0.0 0.00 0.07 0.07 92 1033.9
20190222193205 39 55 0.0 0.0 0.00 0.07 0.07 92 1033.9
20190222192705 39 55 0.0 1.0 0.00 0.07 0.07 92 1033.8
20190222192205 39 55 0.0 1.0 0.00 0.07 0.07 92 1033.8
20190222191705 39 55 0.0 0.0 0.00 0.07 0.07 92 1033.8
20190222191205 39 55 0.0 0.0 0.00 0.07 0.07 92 1033.6
20190222190705 40 55 0.0 0.0 0.00 0.07 0.07 92 1033.6
20190222190205 40 55 0.0 0.0 0.00 0.07 0.07 92 1033.5
20190222185705 40 55 0.0 0.0 0.00 0.07 0.07 91 1033.4
20190222185205 40 55 0.0 0.0 0.00 0.07 0.07 91 1033.4
20190222184705 40 55 0.0 0.0 0.00 0.07 0.07 91 1033.3
20190222184205 40 55 0.0 0.0 0.00 0.07 0.07 91 1033.3
20190222183705 41 55 0.0 0.0 0.00 0.07 0.07 91 1033.3
20190222183205 41 55 0.0 0.0 0.00 0.07 0.07 91 1033.3
20190222182705 41 55 0.0 0.0 0.00 0.07 0.07 91 1033.3
20190222182205 41 55 0.0 0.0 0.00 0.07 0.07 91 1033.3
20190222181705 41 55 0.0 0.0 0.00 0.07 0.07 90 1033.1
20190222181205 42 55 0.0 0.0 0.00 0.07 0.07 90 1033.2
20190222180705 42 55 0.0 0.0 0.00 0.07 0.07 90 1033.1
20190222180206 42 55 0.0 0.0 0.00 0.07 0.07 90 1033.1
20190222175705 42 55 0.0 0.0 0.00 0.07 0.07 90 1033.0
20190222175205 42 55 0.0 1.0 0.00 0.07 0.07 89 1033.0
20190222174705 42 55 0.0 1.0 0.00 0.07 0.07 89 1033.1
20190222174205 43 55 0.0 1.0 0.00 0.07 0.07 89 1033.0
20190222173705 43 55 0.0 0.0 0.00 0.07 0.07 88 1032.8
20190222173205 43 55 0.0 0.0 0.00 0.07 0.07 88 1032.8
20190222172705 43 55 0.0 1.0 0.00 0.07 0.07 88 1032.8
20190222172205 44 55 0.0 1.0 0.00 0.07 0.07 88 1032.7
20190222171705 44 55 0.0 1.0 0.00 0.07 0.07 87 1032.7
20190222171205 44 55 0.0 2.0 0.00 0.07 0.07 87 1032.5
20190222170705 44 27 0.0 2.0 0.00 0.07 0.07 88 1032.4
20190222170205 45 27 0.0 1.0 0.00 0.07 0.07 88 1032.3
20190222165705 45 29 0.0 1.0 0.00 0.07 0.07 88 1032.3
20190222165205 45 29 0.0 0.0 0.00 0.07 0.07 88 1032.3
20190222164705 45 29 0.0 1.0 0.00 0.07 0.07 88 1032.3
20190222164205 45 29 0.0 1.0 0.00 0.07 0.07 88 1032.2
20190222163705 45 29 0.0 4.0 0.00 0.07 0.07 87 1032.1
20190222163205 46 29 0.0 4.0 0.00 0.07 0.07 87 1032.2
20190222162705 46 30 0.0 4.0 0.00 0.07 0.07 86 1032.2
20190222162205 46 30 0.0 1.0 0.00 0.07 0.07 86 1032.2
20190222161705 46 351 0.0 0.0 0.00 0.07 0.07 86 1032.2
20190222161205 47 351 0.0 0.0 0.00 0.07 0.07 85 1032.1
20190222160705 47 351 0.0 0.0 0.00 0.07 0.07 85 1032.0
20190222160205 47 351 0.0 2.0 0.00 0.07 0.07 85 1032.1
20190222155705 48 351 0.0 2.0 0.00 0.07 0.07 85 1032.0
20190222155205 48 351 0.0 2.0 0.00 0.07 0.07 85 1032.0
20190222154705 48 351 0.0 2.0 0.00 0.07 0.07 85 1032.0
20190222154205 48 328 0.0 0.0 0.00 0.07 0.07 87 1031.8
20190222153705 48 6 0.0 0.0 0.00 0.07 0.07 88 1031.6
20190222153205 48 6 0.0 0.0 0.00 0.07 0.07 89 1031.5
20190222152705 48 6 0.0 0.0 0.00 0.07 0.07 90 1031.5
20190222152205 48 6 0.0 0.0 0.00 0.07 0.07 91 1031.5
20190222151705 48 6 0.0 0.0 0.00 0.07 0.07 92 1031.5
20190222151205 48 6 0.0 0.0 0.00 0.07 0.07 92 1031.4
20190222150705 48 6 0.0 0.0 0.00 0.07 0.07 92 1031.3
20190222150205 47 6 0.0 0.0 0.00 0.07 0.07 93 1031.2
20190222145705 47 6 0.0 1.0 0.00 0.07 0.07 92 1031.2
20190222145205 47 6 0.0 1.0 0.00 0.07 0.07 92 1031.2
20190222144705 47 6 0.0 0.0 0.01 0.07 0.07 92 1031.3
20190222144205 47 6 0.0 0.0 0.02 0.07 0.07 92 1031.2
20190222143705 47 6 0.0 0.0 0.02 0.07 0.07 92 1031.2
20190222143205 47 6 0.0 0.0 0.02 0.07 0.07 91 1031.1
20190222142705 47 6 0.0 0.0 0.02 0.07 0.07 91 1031.1
20190222142205 47 6 0.0 0.0 0.02 0.07 0.07 91 1031.0
20190222141705 47 6 0.0 0.0 0.02 0.07 0.07 90 1031.1
20190222141205 47 6 0.0 1.0 0.02 0.07 0.07 90 1031.0
20190222140705 48 6 0.0 4.0 0.02 0.07 0.07 89 1031.1
20190222140205 48 6 0.0 4.0 0.02 0.07 0.07 88 1031.1
20190222135705 48 6 0.0 7.0 0.02 0.07 0.07 87 1031.0
20190222135205 48 7 1.0 7.0 0.01 0.06 0.06 84 1031.1
20190222134705 49 319 0.0 7.0 0.00 0.06 0.06 83 1031.1
20190222134205 50 344 0.0 4.0 0.00 0.06 0.06 84 1031.0
20190222133705 50 334 0.0 4.0 0.00 0.06 0.06 83 1030.9
20190222133205 50 328 1.0 4.0 0.00 0.06 0.06 83 1030.8
20190222132705 50 353 1.0 5.0 0.00 0.06 0.06 83 1030.7
20190222132205 50 314 1.0 5.0 0.00 0.06 0.06 84 1030.7
20190222131705 50 303 1.0 5.0 0.00 0.06 0.06 85 1030.7
20190222131205 50 298 0.0 4.0 0.00 0.06 0.06 85 1030.7
20190222130705 49 310 0.0 4.0 0.00 0.06 0.06 86 1030.7
20190222130205 49 328 0.0 6.0 0.00 0.06 0.06 87 1030.6
20190222125705 49 303 0.0 6.0 0.00 0.06 0.06 88 1030.5
20190222125205 49 329 0.0 3.0 0.00 0.06 0.06 87 1030.6
20190222124705 49 309 0.0 5.0 0.00 0.06 0.06 87 1030.6
20190222124205 49 301 0.0 5.0 0.00 0.06 0.06 87 1030.6
20190222123705 49 314 1.0 5.0 0.00 0.06 0.06 87 1030.7
20190222123205 49 334 1.0 5.0 0.00 0.06 0.06 87 1030.5
20190222122706 49 272 0.0 4.0 0.00 0.06 0.06 88 1030.4
20190222122205 49 347 0.0 3.0 0.00 0.06 0.06 88 1030.5
20190222121705 49 324 0.0 3.0 0.00 0.06 0.06 89 1030.4
20190222121205 48 309 0.0 4.0 0.00 0.06 0.06 89 1030.5
20190222120705 48 349 0.0 4.0 0.00 0.06 0.06 89 1030.4
20190222120205 48 2 0.0 4.0 0.00 0.06 0.06 90 1030.4
20190222115705 48 328 0.0 3.0 0.00 0.06 0.06 92 1030.2
20190222115205 48 288 0.0 5.0 0.00 0.06 0.06 92 1030.1
20190222114705 47 285 0.0 5.0 0.00 0.06 0.06 92 1030.2
20190222114205 47 331 0.0 5.0 0.00 0.06 0.06 92 1030.0
20190222113705 47 303 0.0 4.0 0.00 0.06 0.06 92 1030.0
20190222113205 47 359 0.0 4.0 0.00 0.06 0.06 92 1030.1
20190222112705 46 359 1.0 4.0 0.00 0.06 0.06 91 1030.0
20190222112205 46 338 1.0 4.0 0.00 0.06 0.06 91 1030.0
20190222111705 46 300 0.0 4.0 0.00 0.06 0.06 92 1029.9
20190222111205 46 351 0.0 4.0 0.00 0.06 0.06 92 1030.0
20190222110705 46 319 0.0 4.0 0.00 0.06 0.06 92 1029.9
20190222110205 46 310 1.0 4.0 0.00 0.06 0.06 92 1029.9
20190222105705 46 319 1.0 4.0 0.00 0.06 0.06 92 1029.8
20190222105205 46 324 1.0 3.0 0.00 0.06 0.06 92 1029.9
20190222104705 46 353 0.0 3.0 0.00 0.06 0.06 92 1029.8
20190222104205 46 12 0.0 3.0 0.00 0.06 0.06 92 1029.8
20190222103705 46 331 0.0 3.0 0.00 0.06 0.06 92 1029.8
20190222103205 46 328 0.0 5.0 0.00 0.06 0.06 93 1029.7
20190222102705 46 341 0.0 5.0 0.00 0.06 0.06 93 1029.6
20190222102205 46 14 0.0 5.0 0.00 0.06 0.06 93 1029.6
20190222101705 46 331 0.0 6.0 0.00 0.06 0.06 94 1029.4
20190222101205 46 301 1.0 6.0 0.00 0.06 0.06 94 1029.4
20190222100705 46 299 1.0 5.0 0.00 0.06 0.06 94 1029.2
20190222100205 46 328 1.0 4.0 0.00 0.06 0.06 94 1029.2
20190222095705 46 282 0.0 4.0 0.00 0.06 0.06 94 1029.1
20190222095205 45 348 0.0 7.0 0.00 0.06 0.06 94 1029.0
20190222094705 45 309 1.0 7.0 0.00 0.06 0.06 95 1029.0
20190222094205 45 294 1.0 5.0 0.00 0.06 0.06 95 1028.9
20190222093705 45 278 0.0 5.0 0.00 0.06 0.06 95 1028.9
20190222093205 45 286 1.0 6.0 0.00 0.06 0.06 95 1028.9
20190222092706 45 286 2.0 6.0 0.00 0.06 0.06 95 1028.6
20190222092205 45 330 1.0 6.0 0.00 0.06 0.06 95 1028.5
20190222091705 45 234 0.0 5.0 0.00 0.06 0.06 95 1028.4
20190222091205 45 334 1.0 5.0 0.00 0.06 0.06 95 1028.5
20190222090705 45 340 1.0 5.0 0.00 0.06 0.06 95 1028.4
20190222090205 45 337 0.0 5.0 0.00 0.06 0.06 96 1028.3
20190222085705 45 295 0.0 5.0 0.00 0.06 0.06 96 1028.3
20190222085205 45 290 0.0 3.0 0.00 0.06 0.06 96 1028.3
20190222084705 45 328 0.0 3.0 0.00 0.06 0.06 96 1028.3
20190222084205 44 351 0.0 4.0 0.00 0.06 0.06 96 1028.3
20190222083705 44 329 0.0 4.0 0.00 0.06 0.06 96 1028.3
20190222083205 44 328 0.0 6.0 0.00 0.06 0.06 96 1028.3
20190222082705 44 328 0.0 6.0 0.00 0.06 0.06 96 1028.2
20190222082205 44 319 1.0 6.0 0.00 0.06 0.06 96 1028.0
20190222081705 44 334 1.0 5.0 0.00 0.06 0.06 96 1027.9
20190222081205 44 336 1.0 4.0 0.00 0.06 0.06 96 1027.9
20190222080705 44 336 0.0 4.0 0.00 0.06 0.06 96 1027.9
20190222080205 44 309 1.0 4.0 0.00 0.06 0.06 96 1028.0
20190222075705 44 324 1.0 4.0 0.00 0.06 0.06 96 1027.9
20190222075205 44 324 1.0 6.0 0.00 0.06 0.06 97 1027.9
20190222074705 44 305 1.0 6.0 0.00 0.06 0.06 97 1027.8
20190222074205 44 330 1.0 4.0 0.00 0.06 0.06 96 1027.7
20190222073705 44 314 0.0 4.0 0.00 0.06 0.06 96 1027.6
20190222073205 44 303 0.0 3.0 0.00 0.06 0.06 96 1027.4
20190222072705 44 303 0.0 4.0 0.00 0.06 0.06 96 1027.4
20190222072205 44 301 0.0 4.0 0.00 0.06 0.06 96 1027.3
20190222071705 44 295 1.0 5.0 0.00 0.06 0.06 96 1027.0
20190222071205 44 295 1.0 5.0 0.00 0.06 0.06 96 1027.0
20190222070705 44 324 1.0 6.0 0.00 0.06 0.06 96 1026.9
20190222070205 44 314 1.0 6.0 0.00 0.06 0.06 96 1026.8
20190222065705 44 282 0.0 6.0 0.00 0.06 0.06 96 1026.8
20190222065205 44 319 0.0 3.0 0.00 0.06 0.06 96 1026.9
20190222064705 44 314 0.0 4.0 0.01 0.06 0.06 96 1026.9
20190222064205 44 308 0.0 5.0 0.01 0.06 0.06 96 1026.8
20190222063704 44 278 0.0 5.0 0.01 0.06 0.06 96 1026.7
20190222063205 44 301 0.0 5.0 0.01 0.06 0.06 96 1026.7
20190222062705 44 339 1.0 6.0 0.02 0.06 0.06 96 1026.7